星链-36142(STARLINK-36142)

导读

STARLINK-36142是美国SpaceX公司星链(Starlink)星座的一颗低地球轨道卫星,于2025年12月8日发射入轨。作为星链全球覆盖阶段部署的卫星,它属于经过技术迭代的先进型号,很可能支持手机直连功能,配备激光星间链路,依托相控阵天线等技术,为全球偏远地区提供低延迟、高速宽带互联网接入服务,助力星链实现全球无缝通信覆盖的目标。

Basic Information
目录编号:
66981
目录名称:
STARLINK-36142
国际标识:
2025-288Y
轨道中心:
EARTH
卫星名称:
星链-36142
卫星全名:
星链-36142(STARLINK-36142)
卫星状态:
在轨 (已飞行270 天)
发射日期:
2025-12-08 UTC
国别 :
美国 (US)
星等 :
--
Orbit Information
数据来源 国际轨道数据 AOE轨道数据
星历时间 2026-09-04T07:36:12+0800
14小时前
查看轨道信息
2026-08-28T22:00:00+0800
6天前
查看轨道信息
半长轴 6861.144km 6861.158km
偏心率 0.0002189 0.0002802
轨道倾角 43.004° 42.993°
近地点辐角 284.071° 302.966°
升交点赤经 96.673° 132.813°
平近点角 75.990° 99.702°
近地点 481.505km 481.098km
远地点 484.509km 484.944km
周期 94.266分钟 94.266分钟
每日圈数 15.275942 15.275894
Detailed Information
固有亮度:
5
最大亮度:
2.5
卫星平台:
Starlink V1.0
覆盖范围:
全球
运营商:
太空探索技术公司
运营商所在国:
美国
制造商(研发单位):
太空探索技术公司
制造商所在国:
美国
使用方式:
暂无
Satellite Introduction
Starlink 计划是 SpaceX 推出的全球卫星互联网项目,通过发射低轨道卫星,为全球尤其是偏远地区提供高速、低延迟的互联网服务。自 2019 年起,Starlink 已部署数千颗卫星,旨在缩小全球数字鸿沟,推动互联网普及。该项目还为军事、航空等行业提供通信支持,带来广泛经济效益。
2D Orbit Map
3D Orbit Map
Orbit Altitude Analysis Chart
Orbit Inclination Analysis Chart
Orbit Comprehensive Analysis Chart
View Comprehensive Chart
Conjunction Data List
Event ID Objects TCA Miss Dist (km) Collision Risk Probability Collision Risk Index (CRI) Action
CDM_260906-042305-823106-698121
2026-09-06T
04:23:17+0000
0.541 km
远距离
1.157132E-4 高风险 0.76
CDM_260906-144405-957906-698121
2026-09-06T
14:44:24+0000
0.393 km
远距离
9.991984E-5 中风险 0.75
CDM_260906-160905-823106-698121
2026-09-06T
16:09:26+0000
0.864 km
远距离
2.860527E-5 中风险 0.64
CDM_260906-024905-823106-698121
2026-09-06T
02:49:07+0000
1.419 km
极远距离
5.245491E-6 低风险 0.49
CDM_260905-000705-322106-698121
2026-09-05T
00:07:15+0000
2.212 km
极远距离
2.162034E-6 低风险 0.42
CDM_260906-135705-957906-698121
2026-09-06T
13:57:20+0000
1.423 km
极远距离
1.789142E-6 低风险 0.4
CDM_260906-143505-823106-698121
2026-09-06T
14:35:16+0000
2.289 km
极远距离
1.429091E-6 低风险 0.38
CDM_260906-051606-698106-726721
OBJECT V (67267)
2026-09-06T
05:16:03+0000
2.911 km
极远距离
1.287932E-6 低风险 0.37
CDM_260906-055705-823106-698121
2026-09-06T
05:57:26+0000
2.420 km
极远距离
1.284114E-6 低风险 0.37
CDM_260904-154505-393006-698121
2026-09-04T
15:45:55+0000
2.763 km
极远距离
9.695185E-7 极低风险 0.35